2021-046C

Last updated on Thu Jun 03 2021 00:03:40 GMT+0000 (Coordinated Universal Time)

1 48805U 21046C 21153.62745614 .03281466 67923-5 27324-2 0 9997 2 48805 41.1301 11.4617 0169786 189.8593 169.7515 15.89495480 655

Satellite not in orbit